Tracking 18843 objects as of 21-November-2017
HD Live streaming from Space Station
objects crossing your sky now

H-1 R/B(1)

Track H-1 R/B(1) now!
10-day predictions


NORAD ID: 20230
Int'l Code: 1989-070B
Perigee: 187.8 km
Apogee: 3,993.4 km
Inclination: 28.2 °
Period: 129.1 minutes
Semi major axis: 8461 km
RCS: 2.9914 m2 (large)
Launch date: September 5, 1989
Source: Japan (JPN)
Launch site: TANEGASHIMA SPACE CENTER (TNSTA)

Note: This is a ROCKET BODY
aabbcc
Your satellite tracking list
Your tracking list is empty




NASA's NSSDC Master Catalog

Two Line Element Set (TLE):
1 20230U 89070B   17324.79767119  .00264450 -28144-5  80489-3 0  9993
2 20230  28.2013 139.0580 2248734 215.8184 126.8628 11.15373977527539
Source of the keplerian elements: AFSPC